User: anonymous
Location: Unspecified
(0.0000°N, 0.0000°E)
Time: 17:24:04
(UTC+00:00)
Language:

N. Korean satellite - Orbit

View from above orbital plane
View from above orbital plane
View from above satellite
View from above satellite

Ground track
Ground track

The orbit data is extracted from the following two-line orbital elements,

1 39026U 12072A   14114.05173039  .00008199  00000-0  44446-3 0   343
2 39026 097.3340 155.6813 0051871 255.4511 104.0964 15.13664250 75180
Epoch (UTC): 24 April 2014 01:14:29
Eccentricity: 0.0051871
inclination: 97.3340°
perigee height: 489 km
apogee height: 561 km
right ascension of ascending node: 155.6813°
argument of perigee: 255.4511°
revolutions per day: 15.13664250
mean anomaly at epoch: 104.0964°
orbit number at epoch: 7518

The dashed part of the orbit path shows where the satellite is in the earth's shadow,  

DLR